CW8721 Weather Reports


Display with metric or nautical units.
time (UTC)temp
F
wind
direction
speed
MPH
gust
MPH
rain 1hr
in
rain 24hr
in
rain mn
in
humidity
%
barometer
mb
20260509111557 55 250 1.0 3.0 0.00 0.00 0.00 48 1010.6
20260509111059 55 252 1.0 3.0 0.00 0.00 0.00 45 1010.5
20260509110600 56 252 0.0 3.0 0.00 0.00 0.00 48 1010.5
20260509110104 55 257 0.0 3.0 0.00 0.00 0.00 44 1010.5
20260509105555 55 259 0.0 3.0 0.00 0.00 0.00 55 1010.5
20260509105055 55 259 0.0 2.0 0.00 0.00 0.00 52 1010.5
20260509104554 55 259 0.0 2.0 0.00 0.00 0.00 43 1010.4
20260509104053 55 259 0.0 2.0 0.00 0.00 0.00 43 1010.4
20260509103553 55 259 1.0 4.0 0.00 0.00 0.00 47 1010.4
20260509103101 56 269 2.0 7.0 0.00 0.00 0.00 51 1010.4
20260509102553 56 267 3.0 7.0 0.00 0.00 0.00 51 1010.4
20260509102054 57 266 3.0 7.0 0.00 0.00 0.00 50 1010.4
20260509101603 56 276 2.0 7.0 0.00 0.00 0.00 43 1010.3
20260509101052 56 269 4.0 7.0 0.00 0.00 0.00 47 1010.2
20260509100551 56 265 1.0 6.0 0.00 0.00 0.00 46 1010.1
20260509100050 55 355 3.0 8.0 0.00 0.00 0.00 54 1010.1
20260509095548 55 256 6.0 8.0 0.00 0.00 0.00 54 1010.1
20260509095047 55 290 5.0 10.0 0.00 0.00 0.00 56 1009.9
20260509094557 55 281 4.0 10.0 0.00 0.00 0.00 55 1010.0
20260509094050 55 254 5.0 8.0 0.00 0.00 0.00 54 1009.9
20260509093545 56 270 2.0 7.0 0.00 0.00 0.00 55 1009.8
20260509093048 56 273 3.0 7.0 0.00 0.00 0.00 56 1009.8
20260509092543 57 252 2.0 7.0 0.00 0.00 0.00 53 1009.8
20260509092042 57 251 2.0 8.0 0.00 0.00 0.00 55 1009.8
20260509091544 57 270 2.0 8.0 0.00 0.00 0.00 56 1009.8
20260509091042 57 269 3.0 8.0 0.00 0.00 0.00 54 1009.7
20260509090541 57 259 2.0 6.0 0.00 0.00 0.00 52 1009.7
20260509090049 58 267 3.0 8.0 0.00 0.00 0.00 52 1009.6
20260509085540 58 269 4.0 8.0 0.00 0.00 0.00 49 1009.6
20260509085040 58 263 4.0 8.0 0.00 0.00 0.00 51 1009.6
20260509084545 57 265 4.0 8.0 0.00 0.00 0.00 54 1009.5
20260509084040 57 274 3.0 8.0 0.00 0.00 0.00 57 1009.6
20260509083538 57 289 4.0 8.0 0.00 0.00 0.00 58 1009.5
20260509083051 57 244 2.0 10.0 0.00 0.00 0.00 60 1009.4
20260509082536 57 277 6.0 10.0 0.00 0.00 0.00 57 1009.4
20260509082035 58 275 4.0 9.0 0.00 0.00 0.00 55 1009.4
20260509081533 59 268 4.0 8.0 0.00 0.00 0.00 53 1009.3
20260509081033 61 273 2.0 6.0 0.00 0.00 0.00 43 1009.3
20260509080532 61 311 2.0 6.0 0.00 0.00 0.00 41 1009.3
20260509080031 62 312 1.0 6.0 0.00 0.00 0.00 40 1009.2
20260509075533 62 259 3.0 9.0 0.00 0.00 0.00 40 1009.2
20260509075029 62 269 5.0 9.0 0.00 0.00 0.00 40 1009.1
20260509074528 62 269 5.0 9.0 0.00 0.00 0.00 41 1008.9
20260509074028 62 253 4.0 10.0 0.00 0.00 0.00 41 1009.0
20260509073530 62 258 7.0 10.0 0.00 0.00 0.00 41 1008.9
20260509073031 61 267 6.0 10.0 0.00 0.00 0.00 43 1008.9
20260509072527 62 242 3.0 10.0 0.00 0.00 0.00 44 1008.7
20260509072027 62 274 4.0 10.0 0.00 0.00 0.00 43 1008.7
20260509071534 61 261 5.0 9.0 0.00 0.00 0.00 45 1008.7
20260509071026 61 270 5.0 9.0 0.00 0.00 0.00 47 1008.8
20260509070528 60 259 5.0 8.0 0.00 0.00 0.00 50 1008.7
20260509070024 61 268 3.0 8.0 0.00 0.00 0.00 51 1008.7
20260509065524 60 257 3.0 7.0 0.00 0.00 0.00 50 1008.6
20260509065022 61 274 3.0 7.0 0.00 0.00 0.00 48 1008.6
20260509064521 61 235 2.0 6.0 0.00 0.00 0.00 45 1008.5
20260509064020 61 255 2.0 4.0 0.00 0.00 0.00 44 1008.4
20260509063519 61 251 2.0 4.0 0.00 0.00 0.00 43 1008.5
20260509063023 61 257 1.0 3.0 0.00 0.00 0.00 43 1008.4
20260509062518 61 213 1.0 2.0 0.00 0.00 0.00 42 1008.3
20260509062017 61 213 0.0 2.0 0.00 0.00 0.00 41 1008.2
20260509061521 62 213 0.0 2.0 0.00 0.00 0.00 40 1008.0
20260509061019 62 213 0.0 0.0 0.00 0.00 0.00 40 1008.0
20260509060514 62 213 0.0 1.0 0.00 0.00 0.00 39 1008.0
20260509060012 63 213 0.0 1.0 0.00 0.00 0.00 38 1008.0
20260509055514 64 213 0.0 1.0 0.00 0.00 0.00 37 1008.0
20260509055011 64 213 0.0 2.0 0.00 0.00 0.00 35 1008.1
20260509054513 64 213 0.0 2.0 0.00 0.00 0.00 35 1008.2
20260509054011 64 209 0.0 2.0 0.00 0.00 0.00 34 1008.1
20260509053511 64 213 0.0 5.0 0.00 0.00 0.00 33 1008.1
20260509053138 64 229 0.0 5.0 0.00 0.00 0.00 32 1008.1
20260509052511 63 245 1.0 5.0 0.00 0.00 0.00 33 1008.1
20260509052010 63 262 0.0 6.0 0.00 0.00 0.00 34 1008.0
20260509051511 64 262 0.0 9.0 0.00 0.00 0.00 35 1008.0
20260509051011 63 285 0.0 9.0 0.00 0.00 0.00 34 1008.0
20260509050511 63 323 3.0 9.0 0.00 0.00 0.00 36 1008.1
20260509050017 64 296 2.0 9.0 0.00 0.00 0.00 35 1007.8
20260509045519 64 207 0.0 2.0 0.00 0.00 0.00 36 1007.7
20260509045010 63 143 0.0 0.0 0.00 0.00 0.00 37 1007.6
20260509044509 63 143 0.0 2.0 0.00 0.00 0.00 37 1007.7
20260509044011 63 144 0.0 2.0 0.00 0.00 0.00 36 1007.7
20260509043509 63 144 0.0 0.0 0.00 0.00 0.00 35 1007.6
20260509043009 64 144 0.0 0.0 0.00 0.00 0.00 35 1007.4
20260509042508 65 144 0.0 1.0 0.00 0.00 0.00 33 1007.3
20260509042013 65 144 0.0 2.0 0.00 0.00 0.00 32 1007.1
20260509041508 65 139 0.0 2.0 0.00 0.00 0.00 31 1006.9
20260509041008 67 187 0.0 2.0 0.00 0.00 0.00 28 1007.0
20260509040507 68 189 0.0 1.0 0.00 0.00 0.00 26 1007.0
20260509040018 68 189 0.0 2.0 0.00 0.00 0.00 26 1006.9
20260509035507 68 189 0.0 2.0 0.00 0.00 0.00 26 1006.9
20260509035008 68 186 1.0 2.0 0.00 0.00 0.00 26 1006.8
20260509034507 68 186 0.0 2.0 0.00 0.00 0.00 26 1006.8
20260509034008 68 182 0.0 2.0 0.00 0.00 0.00 27 1006.7
20260509033506 68 182 0.0 2.0 0.00 0.00 0.00 27 1006.6
20260509033006 68 182 0.0 2.0 0.00 0.00 0.00 27 1006.6
20260509032508 68 209 0.0 2.0 0.00 0.00 0.00 27 1006.6
20260509032005 69 221 0.0 2.0 0.00 0.00 0.00 27 1006.5
20260509031507 69 219 0.0 2.0 0.00 0.00 0.00 26 1006.4
20260509031005 69 240 0.0 0.0 0.00 0.00 0.00 26 1006.4
20260509030505 69 240 0.0 2.0 0.00 0.00 0.00 26 1006.4
20260509030006 69 240 0.0 3.0 0.00 0.00 0.00 27 1006.4
20260509025506 69 244 1.0 3.0 0.00 0.00 0.00 27 1006.4
20260509025004 69 249 0.0 2.0 0.00 0.00 0.00 29 1006.4
20260509024507 69 355 0.0 0.0 0.00 0.00 0.00 27 1006.3
20260509024004 68 351 0.0 0.0 0.00 0.00 0.00 28 1006.2
20260509023504 69 351 0.0 0.0 0.00 0.00 0.00 28 1006.2
20260509023004 70 351 0.0 0.0 0.00 0.00 0.00 27 1006.1
20260509022504 70 351 0.0 0.0 0.00 0.00 0.00 25 1006.1
20260509022003 70 351 0.0 2.0 0.00 0.00 0.00 25 1006.1
20260509021505 70 351 0.0 2.0 0.00 0.00 0.00 25 1006.1
20260509021004 71 355 0.0 0.0 0.00 0.00 0.00 24 1006.0
20260509020502 71 355 0.0 0.0 0.00 0.00 0.00 23 1006.0
20260509020003 71 355 0.0 0.0 0.00 0.00 0.00 23 1006.1
20260509015502 71 355 0.0 3.0 0.00 0.00 0.00 23 1006.1
20260509015003 73 355 1.0 3.0 0.00 0.00 0.00 22 1006.1
20260509014501 73 355 0.0 5.0 0.00 0.00 0.00 21 1006.1
20260509014001 74 355 2.0 5.0 0.00 0.00 0.00 21 1006.2
20260509013501 74 49 0.0 4.0 0.00 0.00 0.00 21 1006.1
20260509013103 75 49 2.0 4.0 0.00 0.00 0.00 20 1006.2
20260509012559 75 17 2.0 8.0 0.00 0.00 0.00 20 1006.2
20260509012058 75 11 3.0 8.0 0.00 0.00 0.00 20 1006.2
20260509011600 75 9 3.0 6.0 0.00 0.00 0.00 19 1006.3
20260509011057 76 15 2.0 8.0 0.00 0.00 0.00 20 1006.3
20260509010556 76 304 4.0 8.0 0.00 0.00 0.00 19 1006.5
20260509010056 76 325 3.0 8.0 0.00 0.00 0.00 19 1006.7
20260509005555 76 32 2.0 9.0 0.00 0.00 0.00 20 1006.6
20260509005055 76 351 4.0 9.0 0.00 0.00 0.00 20 1006.7
20260509004600 76 315 6.0 9.0 0.00 0.00 0.00 19 1006.8
20260509004054 76 331 3.0 11.0 0.00 0.00 0.00 19 1006.8
20260509003554 76 315 3.0 11.0 0.00 0.00 0.00 19 1007.0
20260509003057 76 317 4.0 10.0 0.00 0.00 0.00 19 1007.0
20260509002552 76 311 3.0 8.0 0.00 0.00 0.00 20 1007.0
20260509002052 77 313 1.0 11.0 0.00 0.00 0.00 19 1007.1
20260509001552 76 320 6.0 11.0 0.00 0.00 0.00 19 1007.1
20260509001050 76 19 4.0 11.0 0.00 0.00 0.00 19 1007.1
20260509000552 76 310 1.0 12.0 0.00 0.00 0.00 19 1007.2
20260509000051 77 284 7.0 12.0 0.00 0.00 0.00 19 1007.3
20260508235550 77 11 5.0 12.0 0.00 0.00 0.00 19 1007.3
20260508235049 77 299 7.0 13.0 0.00 0.00 0.00 19 1007.5
20260508234550 77 311 8.0 14.0 0.00 0.00 0.00 18 1007.5
20260508234051 77 319 7.0 14.0 0.00 0.00 0.00 19 1007.4
20260508233549 77 273 5.0 11.0 0.00 0.00 0.00 19 1007.5
20260508233049 78 9 3.0 12.0 0.00 0.00 0.00 19 1007.5
20260508232552 78 309 5.0 14.0 0.00 0.00 0.00 18 1007.4
20260508232049 78 319 8.0 14.0 0.00 0.00 0.00 19 1007.5
20260508231548 77 313 4.0 13.0 0.00 0.00 0.00 19 1007.5
20260508231048 77 260 6.0 13.0 0.00 0.00 0.00 19 1007.5
20260508230550 77 313 5.0 14.0 0.00 0.00 0.00 19 1007.6
20260508230047 78 304 9.0 14.0 0.00 0.00 0.00 18 1007.7
20260508225548 77 329 7.0 12.0 0.00 0.00 0.00 20 1007.8
20260508225048 78 313 4.0 12.0 0.00 0.00 0.00 18 1007.9
20260508224559 78 299 6.0 15.0 0.00 0.00 0.00 20 1007.9
20260508224044 77 331 10.0 15.0 0.00 0.00 0.00 18 1008.1
20260508223544 77 334 9.0 18.0 0.00 0.00 0.00 20 1008.0
20260508223051 77 5 10.0 18.0 0.00 0.00 0.00 19 1008.2
20260508222546 77 322 10.0 17.0 0.00 0.00 0.00 19 1008.3
20260508222043 77 323 9.0 14.0 0.00 0.00 0.00 20 1008.3
20260508221543 77 42 8.0 16.0 0.00 0.00 0.00 20 1008.3
20260508221044 77 19 7.0 16.0 0.00 0.00 0.00 20 1008.4
20260508220543 77 342 7.0 14.0 0.00 0.00 0.00 20 1008.4
20260508220050 77 313 5.0 17.0 0.00 0.00 0.00 21 1008.6
20260508215542 77 350 12.0 18.0 0.00 0.00 0.00 20 1008.7
20260508215042 77 310 12.0 18.0 0.00 0.00 0.00 20 1008.7
20260508214542 77 327 7.0 16.0 0.00 0.00 0.00 21 1008.8
20260508214041 76 321 8.0 15.0 0.00 0.00 0.00 22 1008.8
20260508213540 76 345 8.0 18.0 0.00 0.00 0.00 22 1008.8
20260508213043 76 321 12.0 18.0 0.00 0.00 0.00 21 1008.9
20260508212541 77 255 9.0 16.0 0.00 0.00 0.00 19 1008.9
20260508212040 76 17 9.0 17.0 0.00 0.00 0.00 20 1009.0
20260508211540 77 249 10.0 17.0 0.00 0.00 0.00 20 1009.1
20260508211040 76 307 10.0 20.0 0.00 0.00 0.00 20 1009.1
20260508210539 76 327 11.0 20.0 0.00 0.00 0.00 19 1009.1
20260508210043 77 34 8.0 16.0 0.00 0.00 0.00 20 1009.1
20260508205541 76 294 9.0 18.0 0.00 0.00 0.00 20 1009.2
20260508205038 76 296 11.0 16.0 0.00 0.00 0.00 19 1009.3
20260508204538 77 321 7.0 14.0 0.00 0.00 0.00 20 1009.5
20260508204037 77 323 9.0 18.0 0.00 0.00 0.00 20 1009.5
20260508203537 76 338 7.0 18.0 0.00 0.00 0.00 20 1009.6
20260508203042 77 12 7.0 13.0 0.00 0.00 0.00 20 1009.6
20260508202536 76 355 9.0 13.0 0.00 0.00 0.00 20 1009.6
20260508202036 76 318 10.0 17.0 0.00 0.00 0.00 19 1009.7
20260508201534 76 296 9.0 17.0 0.00 0.00 0.00 20 1009.7
20260508201034 75 295 7.0 18.0 0.00 0.00 0.00 22 1009.8
20260508200534 75 345 12.0 18.0 0.00 0.00 0.00 20 1009.8
20260508200036 75 318 8.0 14.0 0.00 0.00 0.00 23 1009.8
20260508195536 75 331 6.0 16.0 0.00 0.00 0.00 24 1009.8
20260508195033 75 331 10.0 17.0 0.00 0.00 0.00 21 1009.9
20260508194538 76 325 10.0 17.0 0.00 0.00 0.00 21 1009.8
20260508194031 75 302 10.0 16.0 0.00 0.00 0.00 22 1009.9
20260508193531 75 302 9.0 16.0 0.00 0.00 0.00 22 1009.9
20260508193031 75 319 11.0 16.0 0.00 0.00 0.00 22 1010.0
20260508192532 75 315 10.0 17.0 0.00 0.00 0.00 23 1010.0
20260508192029 74 319 12.0 17.0 0.00 0.00 0.00 23 1010.0
20260508191535 74 311 9.0 19.0 0.00 0.00 0.00 22 1010.0
20260508191028 74 301 10.0 19.0 0.00 0.00 0.00 22 1010.0
20260508190529 74 332 10.0 18.0 0.00 0.00 0.00 23 1010.1
20260508190027 74 306 9.0 18.0 0.00 0.00 0.00 23 1010.2
20260508185525 74 305 9.0 17.0 0.00 0.00 0.00 23 1010.3
20260508185025 73 308 10.0 17.0 0.00 0.00 0.00 24 1010.3
20260508184526 73 318 9.0 19.0 0.00 0.00 0.00 24 1010.3
20260508184023 72 329 10.0 18.0 0.00 0.00 0.00 24 1010.3
20260508183523 73 290 9.0 18.0 0.00 0.00 0.00 22 1010.4
20260508183028 73 309 11.0 18.0 0.00 0.00 0.00 24 1010.4
20260508182520 73 331 8.0 15.0 0.00 0.00 0.00 27 1010.4
20260508182019 72 305 8.0 15.0 0.00 0.00 0.00 27 1010.5
20260508181519 72 329 10.0 19.0 0.00 0.00 0.00 26 1010.6
20260508181018 72 340 9.0 19.0 0.00 0.00 0.00 27 1010.6
20260508180516 72 317 11.0 17.0 0.00 0.00 0.00 26 1010.6
20260508180020 72 327 10.0 19.0 0.00 0.00 0.00 26 1010.7
20260508175514 72 331 12.0 19.0 0.00 0.00 0.00 26 1010.6
20260508175014 72 318 11.0 17.0 0.00 0.00 0.00 26 1010.7
20260508174512 72 296 10.0 16.0 0.00 0.00 0.00 26 1010.7
20260508174020 71 277 9.0 18.0 0.00 0.00 0.00 26 1010.7
20260508173512 71 346 8.0 18.0 0.00 0.00 0.00 28 1010.7
20260508173012 71 321 11.0 19.0 0.00 0.00 0.00 26 1010.7
20260508172516 71 305 12.0 19.0 0.00 0.00 0.00 27 1010.8
20260508172011 71 306 9.0 18.0 0.00 0.00 0.00 29 1010.7
20260508171511 72 256 12.0 17.0 0.00 0.00 0.00 28 1010.7
20260508171007 71 309 8.0 17.0 0.00 0.00 0.00 30 1010.7
20260508170507 71 338 8.0 16.0 0.00 0.00 0.00 29 1010.7
20260508170009 70 329 11.0 16.0 0.00 0.00 0.00 30 1010.8
20260508165503 70 316 11.0 16.0 0.00 0.00 0.00 32 1010.7
20260508165003 71 275 9.0 14.0 0.00 0.00 0.00 32 1010.7
20260508164601 71 355 8.0 14.0 0.00 0.00 0.00 34 1010.7
20260508164059 70 351 9.0 17.0 0.00 0.00 0.00 34 1010.7
20260508163557 69 333 10.0 17.0 0.00 0.00 0.00 35 1010.6
20260508163056 70 321 10.0 15.0 0.00 0.00 0.00 34 1010.6
20260508162555 70 321 9.0 14.0 0.00 0.00 0.00 37 1010.5
20260508162053 69 5 8.0 12.0 0.00 0.00 0.00 36 1010.6
20260508161558 69 333 7.0 11.0 0.00 0.00 0.00 38 1010.5
20260508161051 68 24 3.0 10.0 0.00 0.00 0.00 40 1010.5
20260508160553 67 305 6.0 10.0 0.00 0.00 0.00 39 1010.5
20260508160049 67 289 6.0 10.0 0.00 0.00 0.00 39 1010.5
20260508155547 67 17 5.0 10.0 0.00 0.00 0.00 37 1010.6
20260508155046 67 13 2.0 9.0 0.00 0.00 0.00 38 1010.4
20260508154604 67 303 4.0 9.0 0.00 0.00 0.00 37 1010.6
20260508154042 67 323 4.0 9.0 0.00 0.00 0.00 38 1010.5
20260508153542 66 51 2.0 5.0 0.00 0.00 0.00 39 1010.6
20260508153041 65 336 3.0 5.0 0.00 0.00 0.00 41 1010.6
20260508152541 65 351 2.0 4.0 0.00 0.00 0.00 41 1010.6
20260508152037 64 26 0.0 3.0 0.00 0.00 0.00 44 1010.5
20260508151536 64 13 1.0 3.0 0.00 0.00 0.00 45 1010.5
20260508151035 63 36 1.0 3.0 0.00 0.00 0.00 45 1010.4
20260508150533 63 36 1.0 3.0 0.00 0.00 0.00 47 1010.4
20260508150051 62 49 0.0 2.0 0.00 0.00 0.00 46 1010.4
20260508145531 61 49 0.0 3.0 0.00 0.00 0.00 49 1010.3
20260508145030 61 49 1.0 3.0 0.00 0.00 0.00 50 1010.4
20260508144529 60 53 0.0 5.0 0.00 0.00 0.00 53 1010.3
20260508144028 60 52 2.0 5.0 0.00 0.00 0.00 52 1010.3
20260508143529 59 61 2.0 4.0 0.00 0.00 0.00 54 1010.2
20260508143025 59 53 2.0 4.0 0.00 0.00 0.00 55 1010.2
20260508142525 58 55 1.0 4.0 0.00 0.00 0.00 56 1010.1
20260508142025 57 55 0.0 4.0 0.00 0.00 0.00 58 1010.1
20260508141526 57 55 3.0 4.0 0.00 0.00 0.00 58 1010.1
20260508141024 56 57 2.0 3.0 0.00 0.00 0.00 60 1010.0
20260508140522 55 57 0.0 4.0 0.00 0.00 0.00 60 1009.9
20260508140026 55 57 3.0 4.0 0.00 0.00 0.00 61 1010.0
20260508135518 54 55 1.0 3.0 0.00 0.00 0.00 64 1010.0
20260508135018 53 55 0.0 3.0 0.00 0.00 0.00 65 1009.9
20260508134517 53 55 0.0 3.0 0.00 0.00 0.00 65 1009.9
20260508134016 52 56 1.0 3.0 0.00 0.00 0.00 67 1009.8
20260508133515 51 56 0.0 0.0 0.00 0.00 0.00 67 1009.7
20260508133014 50 56 0.0 0.0 0.00 0.00 0.00 67 1009.7
20260508132513 50 56 0.0 0.0 0.00 0.00 0.00 67 1009.7
20260508132012 50 56 0.0 0.0 0.00 0.00 0.00 67 1009.7
20260508131512 49 56 0.0 0.0 0.00 0.00 0.00 68 1009.7
20260508131015 49 360 0.0 0.0 0.00 0.00 0.00 68 1009.6
20260508130511 49 360 0.0 0.0 0.00 0.00 0.00 67 1009.4
20260508130009 49 61 0.0 0.0 0.00 0.00 0.00 65 1009.4
20260508125508 49 360 0.0 0.0 0.00 0.00 0.00 65 1009.3
20260508125006 49 360 0.0 0.0 0.00 0.00 0.00 64 1009.2
20260508124506 49 63 0.0 0.0 0.00 0.00 0.00 64 1009.1
20260508124006 50 360 0.0 0.0 0.00 0.00 0.00 65 1009.1
20260508123505 49 56 0.0 0.0 0.00 0.00 0.00 65 1009.0
20260508123005 49 56 0.0 0.0 0.00 0.00 0.00 65 1008.9
20260508122503 49 56 0.0 0.0 0.00 0.00 0.00 65 1008.9
20260508122002 49 56 0.0 0.0 0.00 0.00 0.00 64 1008.9
20260508121502 49 56 0.0 0.0 0.00 0.00 0.00 64 1008.8
20260508121002 49 56 0.0 0.0 0.00 0.00 0.00 64 1008.8
20260508120502 49 56 0.0 0.0 0.00 0.00 0.00 64 1008.7
20260508120002 50 56 0.0 0.0 0.00 0.00 0.00 62 1008.7
20260508115501 50 56 0.0 0.0 0.00 0.00 0.00 61 1008.7
20260508115100 51 57 0.0 0.0 0.00 0.00 0.00 59 1008.6
20260508114600 52 57 0.0 0.0 0.00 0.00 0.00 58 1008.7
20260508114100 52 56 0.0 0.0 0.00 0.00 0.00 60 1008.7
20260508113600 50 56 0.0 0.0 0.00 0.00 0.00 63 1008.6
20260508113100 50 56 0.0 0.0 0.00 0.00 0.00 62 1008.6
20260508112559 50 56 0.0 0.0 0.00 0.00 0.00 62 1008.6
20260508112102 50 57 0.0 0.0 0.00 0.00 0.00 61 1008.6
20260508111606 51 61 0.0 0.0 0.00 0.00 0.00 60 1008.7